Location: Civry
(47.2902°N, 4.6156°E)
Time: 17:30:33
(UTC+00:00)

Cosmos 1943 - Pass Details

Date: 09 April 2020
Orbit: 832 x 851 km, 71.0° (Epoch: 28 May)

Event Time Altitude Azimuth Distance (km) Brightness Sun altitude
Rises 19:08:31 0° 218° (SW) 3,384 6.6 -8.2°
Reaches altitude 10° 19:10:59 10° 222° (SW) 2,456 5.9 -8.6°
Maximum altitude 19:16:32 59° 301° (WNW) 975 3.9 -9.5°
Drops below altitude 10° 19:22:10 10° 21° (NNE) 2,483 5.7 -10.4°
Sets 19:24:41 0° 26° (NNE) 3,424 6.4 -10.8°
